Regional Weather Roundup
Issued by NWS Charleston, SC

Current Version | Previous Version | Text Only | Print | Product List | Glossary Off
Versions: 1 2 3 4 5 6 7 8 9 10 11 12 13 14 15 16 17 18 19 20 21 22 23 24 25 26 27 28 29 30 31 32 33 34 35 36 37 38 39 40 41 42 43 44 45 46 47 48 49 50
000 ASUS42 KCHS 241027 RWRCHS REGIONAL WEATHER ROUNDUP NATIONAL WEATHER SERVICE CHARLESTON SC 600 AM EDT MON APR 24 2017 NOTE: "FAIR" INDICATES FEW OR NO CLOUDS BELOW 12,000 FEET WITH NO SIGNIFICANT WEATHER AND/OR OBSTRUCTIONS TO VISIBILITY. NOT ALL STATIONS ARE QUALITY CONTROLLED. USE DATA WITH CAUTION... ESPECIALLY DEWPOINT OBSERVATIONS. SCZ027-030-031-034>040-042>050-241100- ...SOUTHEAST SOUTH CAROLINA... CITY SKY/WX TMP DP RH WIND PRES REMARKS N CHARLESTON CLOUDY 70 67 90 SE8 29.69S WATERFRONT PRK N/A 70 68 93 SE8G20 29.68R JOHNS ISLAND CLOUDY 72 70 94 S5 29.69S PINOPOLIS N/A 70 68 94 E6 29.61F MONCKS CORNER CLOUDY 68 66 94 CALM 29.71R FOG SUMMERVILLE CLOUDY 68 68 100 CALM 29.70S BEAUFORT MCAS CLOUDY 74 70 87 S8 29.66F BEAUFORT ARPT CLOUDY 72 68 88 S12G20 29.66S HILTON HEAD IS NOT AVBL WALTERBORO CLOUDY 68 68 100 CALM 29.69S ALLENDALE CLOUDY 64 64 100 CALM 29.67S ...SOUTHERN MIDLANDS AND PEE DEE... CITY SKY/WX TMP DP RH WIND PRES REMARKS GEORGETOWN CLOUDY 68 68 100 CALM 29.74S THUNDER KINGSTREE CLOUDY 59 57 94 NE6 29.74S ORANGEBURG CLOUDY 65 64 97 VRB3 29.70R BARNWELL CLOUDY 63 63 100 N8 29.68F AIKEN CLOUDY 54 54 100 N13 29.74S MANNING DRIZZLE 61 59 94 NE3 29.72S COLUMBIA RAIN 61 60 97 NE7 29.72F FOG SUMTER DRIZZLE 61 59 94 NE13 29.71S FLORENCE LGT RAIN 58 58 100 NE8 29.78R MYRTLE BEACH NOT AVBL N MYRTLE BEACH RAIN 68 67 96 MISG 29.75S FOG $$ GAZ063-065-086>088-099>101-113>116-118-119-134>141-150-241100- ...SOUTHEAST GEORGIA... CITY SKY/WX TMP DP RH WIND PRES REMARKS SAVANNAH ARPT MOCLDY 68 64 87 W5 29.67S HUNTER AAF PTCLDY 70 70 100 W6 29.65R FORT STEWART PTCLDY 67 66 94 CALM 29.65F STATESBORO CLOUDY 67 67 100 CALM 29.66F SYLVANIA CLOUDY 70 66 88 CALM 29.67F FOG CLAXTON CLOUDY N/A N/A N/A CALM 29.67S ...CSRA...CENTRAL AND FAR SOUTHEAST GEORGIA... CITY SKY/WX TMP DP RH WIND PRES REMARKS THOMSON CLOUDY 54 53 96 E7 29.77R AUGUSTA-BUSH CLOUDY 60 56 86 N10 29.70S AUGUSTA-DANIEL LGT RAIN 58 53 84 N9 29.71S SWAINSBORO TSTM 63 63 100 CALM 29.69S VIDALIA CLOUDY 63 61 94 SW7 29.69R EASTMAN CLOUDY 61 61 100 W5 29.74R HAZLEHURST RAIN 62 62 100 W3 29.70S ALMA CLOUDY 62 61 96 W5 29.70S WAYCROSS CLOUDY 65 64 97 NW7 29.70S JESUP CLOUDY 64 61 88 W5 29.69R BAXLEY CLOUDY 63 63 100 W5 29.70R BRUNSWICK PTCLDY 70 68 94 S6 29.69S SAINT SIMONS PTCLDY 70 66 87 SW9 29.68S $$ SCZ027-028-034-036>038-045-046-048>050-GAZ119-141-241100- ...LAKE AND SUPPLEMENTAL COASTAL OBSERVATIONS... STATION/POSITION TIME TEMP WIND PRES WAVE SWELL AIR SEA DIR/SP/G HT/PER HT/PER/DIR (UTC) (F) (DEG/KT/KT) (MB) (FT/S) (FT/S/D) WINYAH BAY 0930 71 160/ 7 1006.0S LAKE MURRAY 1020 57 20/ 3/ 7 1006.8 ACE BASIN NERRS 0945 72 180/ 1 1005.0S FORT PULASKI 1000 72 75 250/ 6/ 8 1004.8 SAPELO ISLAND 0930 71 220/ 10 1005.0S $$ ANZ835-935-AMZ111-154-330-350-352-354-370-450-454-472-241100- ...C-MAN AND BUOY OBSERVATIONS... STATION/POSITION TIME TEMP WIND PRES WAVE SWELL AIR SEA DIR/SP/G HT/PER HT/PER/DIR (UTC) (F) (DEG/KT/KT) (MB) (FT/S) (FT/S/D) BUOY 41004 1010 75 74 150/ 21/ 25 1005.5 BUOY 41008 0950 72 71 200/ 12/ 14 1004.4S 5/ 5 2/ 60/11 FOLLY BEACH CMAN 1000 70 170/ 20/ 25 1006.1F CAPERS NEARSHORE 1008 74 72 170/ 14/ 19 1005.1F FRIPP NEARSHORE 1008 73 72 200/ 12/ 16 1004.1F STATION/POSITION TIME TEMP WIND PRES WAVE SWELL AIR SEA DIR/SP/G HT/PER HT/PER/DIR (UTC) (F) (DEG/KT/KT) (MB) (FT/S) (FT/S/D) 5E ST. MARYS GA 1000 73 N/A 4/ 5 2/ 90/12 FRYING PAN BUOY 1010 71 75 140/ 19/ 25 1007.8 BUOY 41025 0950 76 79 180/ 19/ 25 1010.8F 7/11 7/ 60/11 CAPE LOOKOUT NC 1000 67 50/ 6/ 6 1009.8R BUOY 41002 0950 72 75 130/ 21/ 23 1010.0F 7/ 7 2/ 20/11 BUOY 41010 1010 74 78 90/ 10/ 12 1005.6 ST AUGUSTINE FL 1000 70 75 220/ 5/ 6 1007.0R $$

USA.gov is the U.S. government's official web portal to all federal, state and local government web resources and services.